#timestamp,LO_Frequency,Hit,StdDev 
1542556815.7,286047000.4,N
1542556835.6,286047000.3,N
1542556855.4,286046998.3,N
1542556875.2,286047000.7,N
1542556895.1,286046997.5,N
1542556896.0,286046997.5,N
1542556915.8,286046995.6,N
1542556935.6,286046995.6,N
1542556955.5,286046996.2,N
1542556975.3,286046993.6,Y
1542556995.2,286046993.9,P
1542557015.9,286046992.0,P
1542557035.7,286046992.8,N
1542557055.6,286046992.7,N
1542557075.4,286046993.1,N
1542557095.3,286046992.1,Y
1542557115.1,286047000.8,P
1542557116.0,286047000.8,N
1542557135.8,286046999.6,N
1542557155.7,286046997.4,N
1542557175.5,286046997.7,N
1542557195.3,286046997.2,N
1542557215.2,286046997.9,N
1542557235.0,286046993.4,Y
1542557235.9,286046993.4,P
1542557255.8,286046997.4,N
1542557275.6,286046996.7,N
1542557295.4,286046995.4,N
1542557315.3,286046996.4,N
1542557335.1,286046998.0,N
1542557355.8,286046998.7,N
1542557375.7,286047002.4,N
1542557395.5,286047004.4,N
1542557415.4,286047004.3,N
1542557435.2,286047005.6,N
1542557455.0,286047005.0,N
1542557455.9,286047005.0,N
1542557475.8,286047006.0,N
1542557495.6,286047002.3,N
1542557515.4,286046999.8,N
1542557535.3,286047004.4,N
1542557555.1,286047003.4,N
1542557575.9,286047001.4,N
1542557595.7,286047001.4,N
1542557615.5,286047003.5,N
1542557635.4,286047004.2,N
1542557655.2,286047001.4,N
1542557675.0,286047004.6,N
1542557676.0,286047004.6,N
1542557695.8,286047008.8,N
1542557715.6,286047006.7,N
1542557735.5,286047007.6,N
1542557755.3,286047007.2,N
1542557775.1,286047008.0,N
1542557795.9,286047007.3,N
1542557815.7,286047008.2,N
1542557835.5,286047008.8,N
1542557855.4,286047010.4,N
1542557875.2,286047008.8,N
1542557895.1,286047006.9,N
1542557896.0,286047006.9,N
1542557915.8,286047005.7,N
1542557935.6,286047006.4,N
1542557955.5,286047009.4,Y
1542557975.3,286047009.2,P
1542557995.2,286047008.9,P
1542558015.9,286047009.0,P
1542558035.7,286047007.6,Y
1542558055.6,286046997.3,P
1542558075.4,286046997.7,N
1542558095.2,286046998.2,N
1542558115.1,286046999.3,N
1542558116.0,286046999.3,N
1542558135.8,286046998.7,N
1542558155.7,286047001.2,N
1542558175.5,286047000.6,N
1542558195.3,286046999.9,N
1542558215.2,286046999.4,N
1542558235.0,286046996.9,N
1542558235.9,286046996.9,N
1542558255.8,286046999.3,N
1542558275.6,286046998.4,N
1542558295.4,286046996.8,N
1542558315.3,286046995.1,N
1542558335.1,286046993.1,N
1542558355.9,286046993.7,N
1542558375.7,286046998.8,N
1542558395.5,286047002.8,N
1542558415.4,286047001.3,N
1542558435.2,286047002.0,N
1542558455.0,286046998.5,N
1542558455.9,286046998.5,N
1542558475.8,286046997.3,N
1542558495.6,286046997.3,N
1542558515.4,286046997.3,N
1542558535.3,286047000.3,N
1542558555.1,286046998.1,N
1542558575.9,286047002.5,N
1542558595.7,286046999.8,N
1542558615.5,286047000.8,N
1542558635.4,286046998.5,N
1542558655.2,286046998.3,N
1542558675.0,286046998.6,N
1542558675.9,286046998.6,N
1542558695.8,286046994.9,N
1542558715.6,286046997.5,N
1542558735.5,286046997.6,N
1542558755.3,286046994.0,N
1542558775.1,286046995.2,N
1542558795.9,286046998.0,N
1542558815.7,286046996.7,N
1542558835.5,286047000.9,N
1542558855.4,286046999.3,N
1542558875.2,286046998.3,N
1542558895.1,286047001.1,N
1542558896.0,286047001.1,N
1542558915.8,286047005.9,N
1542558935.6,286047006.7,N
1542558955.5,286047006.2,N
1542558975.3,286047006.9,N
1542558995.1,286047004.8,N
1542559015.9,286047003.8,N
1542559035.7,286047003.8,N
1542559055.6,286047008.9,N
1542559075.4,286047012.4,Y
1542559095.2,286047009.2,P
1542559115.1,286047009.1,N
1542559116.0,286047009.1,N
1542559135.8,286047006.1,N
1542559155.6,286047005.3,N
1542559175.5,286047004.7,N
1542559195.3,286047005.5,N
1542559215.2,286047005.1,N
1542559235.9,286047004.0,N
1542559255.7,286047004.3,N
1542559275.6,286047001.5,N
1542559295.4,286047004.0,N
1542559315.2,286047003.2,N
1542559335.1,286047003.1,N
1542559336.0,286047003.1,N
1542559355.8,286047005.1,N
1542559375.7,286047005.0,N
1542559395.5,286047007.5,Y
1542559415.3,286047001.5,P
1542559435.2,286047002.1,N
1542559455.0,286047001.8,N
1542559455.9,286047001.8,N
1542559475.7,286047001.5,N
1542559495.6,286047001.9,N
1542559515.4,286047002.5,N
1542559535.3,286047002.3,N
1542559555.1,286047000.3,N
1542559556.0,286047000.3,N
1542559575.8,286047000.6,N
1542559595.7,286046998.2,N
1542559615.5,286047001.1,N
1542559635.3,286046999.1,N
1542559655.2,286046996.6,N
1542559675.0,286046999.1,N
1542559675.9,286046999.1,N
1542559695.8,286046997.9,N
1542559715.6,286047000.8,N
1542559735.4,286047000.0,N
1542559755.3,286047000.2,N
1542559775.1,286047004.4,N
1542559795.8,286047004.6,N
1542559815.7,286047006.1,Y
1542559835.5,286047005.1,P
1542559855.4,286047007.6,P
1542559875.2,286047010.4,P
1542559895.0,286047009.3,N
1542559895.9,286047009.3,N
1542559915.8,286047010.6,Y
1542559935.6,286047002.2,P
1542559955.5,286047004.4,N
1542559975.3,286047002.0,N
1542559995.1,286047002.6,N
1542560015.9,286047000.0,N
1542560035.7,286046999.4,N
1542560055.5,286047000.7,N
1542560075.4,286047003.8,N
1542560095.2,286047005.9,N
1542560115.0,286047004.0,N
1542560116.0,286047004.0,N
1542560135.8,286047002.5,N
1542560155.6,286047002.7,N
1542560175.5,286047000.1,N
1542560195.3,286047001.1,N
1542560215.1,286046998.7,N
1542560235.9,286047001.7,N
1542560255.7,286047007.3,Y
1542560275.6,286047007.1,P
1542560295.4,286047004.6,N
1542560315.2,286047008.5,P
1542560335.1,286047008.5,Y
1542560336.0,286047008.5,P
1542560355.8,286047007.6,P
1542560375.6,286047005.4,P
1542560395.5,286047003.9,N
